Location: Unspecified
(58.7730°N, 5.8460°E)
Time: 15:42:13
(UTC+02:00)

CZ-3 Stage 3 - Visible Passes

Search period start: 26 May 2018 00:00
Search period end: 05 June 2018 00:00
Orbit: 421 x 34774 km, 30.9° (Epoch: 25 May)

Date Brightness Start Highest point End Pass type
(mag) Time Alt. Az. Time Alt. Az. Time Alt. Az.
26 May 9.2 01:58:46 10° ESE 03:06:13 14° ESE 03:41:39 10° E visible
27 May 7.4 05:26:36 10° SSW 10:51:56 33° SSW 11:06:12 10° SE visible
28 May 8.7 02:12:28 10° SSE 06:54:23 35° SSE 07:29:36 10° ESE visible
29 May 9.2 01:40:27 10° ESE 02:55:45 15° ESE 03:33:31 10° E visible
30 May 7.4 05:02:41 10° SSW 10:41:59 33° SSW 10:56:33 10° SE visible
31 May 8.6 01:54:58 10° SSE 06:44:05 36° SSE 07:20:00 10° ESE visible
01 Jun 9.1 01:22:27 10° ESE 02:45:14 16° ESE 03:25:07 10° E visible
02 Jun 7.4 04:40:11 10° SSW 10:31:59 34° SSW 10:46:51 10° SSE visible
03 Jun 8.5 01:37:38 10° SSE 06:33:41 37° SSE 07:10:22 10° ESE visible
04 Jun 9.1 01:04:41 10° ESE 02:34:38 17° ESE 03:16:27 10° E daylight
